• In Hungary
  • List of Countries
  • For 7 days
  • Water Temperature
  • Satellite Maps
  • Weather Map
  • News
  • Weather Widgets
  • user-avatar
    Login

    Hourly Weather Caracas

    Today, 18 October, Thursday

    Time Temperature Precipitation Wind Pressure Humidity
    00:00 +18°C° 0.7 mm 2 mps 648 mmHg 96%
    01:00 +18°C° 0.7 mm 2 mps 648 mmHg 96%
    02:00 +18°C° 0.7 mm 2 mps 647 mmHg 97%
    03:00 +18°C° 0.5 mm 2 mps 647 mmHg 96%
    04:00 +18°C° 0.5 mm 2 mps 647 mmHg 96%
    05:00 +18°C° 0.5 mm 2 mps 647 mmHg 96%
    06:00 +19°C° 0.1 mm 2 mps 648 mmHg 95%
    07:00 +19°C° 0.1 mm 2 mps 648 mmHg 93%
    08:00 +20°C° 0.1 mm 2 mps 648 mmHg 91%
    09:00 +21°C° 0.7 mm 2 mps 649 mmHg 88%
    10:00 +23°C° 0.7 mm 2 mps 649 mmHg 85%
    11:00 +24°C° 0.7 mm 2 mps 649 mmHg 81%
    12:00 +23°C° 1.8 mm 2 mps 649 mmHg 84%
    13:00 +23°C° 1.8 mm 2 mps 648 mmHg 87%
    14:00 +23°C° 1.8 mm 2 mps 647 mmHg 90%
    15:00 +21°C° 1.5 mm 2 mps 647 mmHg 92%
    16:00 +21°C° 1.5 mm 2 mps 647 mmHg 93%
    17:00 +20°C° 1.5 mm 2 mps 646 mmHg 94%
    18:00 +20°C° 1.2 mm 2 mps 647 mmHg 95%
    19:00 +19°C° 1.2 mm 2 mps 647 mmHg 95%
    20:00 +19°C° 1.2 mm 2 mps 648 mmHg 96%
    21:00 +19°C° 0.2 mm 2 mps 648 mmHg 96%
    22:00 +19°C° 0.2 mm 2 mps 648 mmHg 97%
    23:00 +19°C° 0.2 mm 2 mps 648 mmHg 97%

    Tomorrow, 19 October, Friday

    Time Temperature Precipitation Wind Pressure Humidity
    00:00 +19°C° 0.2 mm 2 mps 648 mmHg 97%
    01:00 +18°C° 0.2 mm 2 mps 647 mmHg 97%
    02:00 +18°C° 0.2 mm 2 mps 647 mmHg 97%
    03:00 +18°C° 1 mm 2 mps 647 mmHg 97%
    04:00 +18°C° 1 mm 2 mps 647 mmHg 97%
    05:00 +18°C° 1 mm 2 mps 647 mmHg 97%
    06:00 +19°C° 2.3 mm 1 mps 647 mmHg 96%
    07:00 +19°C° 2.3 mm 1 mps 648 mmHg 95%
    08:00 +20°C° 2.3 mm 1 mps 648 mmHg 95%
    09:00 +21°C° 1.4 mm 1 mps 649 mmHg 90%
    10:00 +22°C° 1.4 mm 1 mps 649 mmHg 86%
    11:00 +23°C° 1.4 mm 1 mps 649 mmHg 81%
    12:00 +23°C° 1.8 mm 1 mps 648 mmHg 83%
    13:00 +23°C° 1.8 mm 1 mps 648 mmHg 86%
    14:00 +23°C° 1.8 mm 2 mps 647 mmHg 88%
    15:00 +22°C° 2 mm 1 mps 647 mmHg 90%
    16:00 +21°C° 2 mm 1 mps 646 mmHg 91%
    17:00 +21°C° 2 mm 1 mps 646 mmHg 93%
    18:00 +20°C° 2.1 mm 1 mps 646 mmHg 94%
    19:00 +20°C° 2.1 mm 1 mps 647 mmHg 95%
    20:00 +19°C° 2.1 mm 1 mps 647 mmHg 95%
    21:00 +19°C° 1.8 mm 1 mps 647 mmHg 96%
    22:00 +19°C° 1.8 mm 1 mps 648 mmHg 96%
    23:00 +19°C° 1.8 mm 1 mps 648 mmHg 97%

    Day after tomorrow, 20 October, Saturday

    Time Temperature Precipitation Wind Pressure Humidity
    00:00 +19°C° 0.7 mm 1 mps 647 mmHg 97%
    01:00 +19°C° 0.7 mm 1 mps 647 mmHg 97%
    02:00 +19°C° 0.7 mm 1 mps 647 mmHg 97%
    03:00 +19°C° 0.4 mm 1 mps 646 mmHg 97%
    04:00 +19°C° 0.4 mm 1 mps 646 mmHg 97%
    05:00 +19°C° 0.4 mm 1 mps 646 mmHg 96%
    06:00 +19°C° 0.3 mm 1 mps 647 mmHg 96%
    07:00 +19°C° 0.3 mm 1 mps 647 mmHg 95%
    08:00 +20°C° 0.3 mm 1 mps 648 mmHg 94%
    09:00 +21°C° 0.6 mm 1 mps 648 mmHg 92%
    10:00 +22°C° 0.6 mm 1 mps 648 mmHg 90%
    11:00 +22°C° 0.6 mm 1 mps 649 mmHg 88%
    12:00 +22°C° 1.1 mm 1 mps 648 mmHg 89%
    13:00 +22°C° 1.1 mm 1 mps 647 mmHg 90%
    14:00 +22°C° 1.1 mm 1 mps 646 mmHg 91%
    15:00 +22°C° 1.2 mm 1 mps 646 mmHg 91%
    16:00 +21°C° 1.2 mm 1 mps 646 mmHg 92%
    17:00 +21°C° 1.2 mm 1 mps 646 mmHg 93%
    18:00 +20°C° 1.2 mm 1 mps 646 mmHg 94%
    19:00 +20°C° 1.2 mm 1 mps 646 mmHg 95%
    20:00 +19°C° 1.2 mm 1 mps 647 mmHg 95%
    21:00 +19°C° 1.5 mm 1 mps 647 mmHg 96%
    22:00 +19°C° 1.5 mm 1 mps 647 mmHg 96%
    23:00 +19°C° 1.5 mm 1 mps 647 mmHg 96%

    21 October, Sunday

    Time Temperature Precipitation Wind Pressure Humidity
    00:00 +19°C° 0.8 mm 1 mps 647 mmHg 96%
    01:00 +19°C° 0.8 mm 1 mps 647 mmHg 96%
    02:00 +19°C° 0.8 mm 1 mps 646 mmHg 97%
    03:00 +19°C° 0.1 mm 1 mps 646 mmHg 97%
    04:00 +19°C° 0.1 mm 1 mps 646 mmHg 97%
    05:00 +19°C° 0.1 mm 1 mps 646 mmHg 97%
    06:00 +19°C° 0.1 mm 1 mps 647 mmHg 96%
    07:00 +19°C° 0.1 mm 1 mps 647 mmHg 95%
    08:00 +20°C° 0.1 mm 1 mps 648 mmHg 94%
    09:00 +21°C° 0.3 mm 1 mps 648 mmHg 92%
    10:00 +22°C° 0.3 mm 1 mps 648 mmHg 89%
    11:00 +23°C° 0.3 mm 1 mps 649 mmHg 87%
    12:00 +22°C° 1.2 mm 1 mps 648 mmHg 88%
    13:00 +22°C° 1.2 mm 1 mps 647 mmHg 88%
    14:00 +22°C° 1.2 mm 1 mps 647 mmHg 89%
    15:00 +22°C° 1.1 mm 1 mps 646 mmHg 91%
    16:00 +21°C° 1.1 mm 1 mps 646 mmHg 92%
    17:00 +21°C° 1.1 mm 1 mps 646 mmHg 93%
    18:00 +20°C° 1 mm 1 mps 646 mmHg 94%
    19:00 +20°C° 1 mm 1 mps 647 mmHg 95%
    20:00 +19°C° 1 mm 1 mps 647 mmHg 96%
    21:00 +19°C° 0.4 mm 1 mps 647 mmHg 96%
    22:00 +19°C° 0.4 mm 1 mps 647 mmHg 96%
    23:00 +19°C° 0.4 mm 1 mps 647 mmHg 97%

    22 October, Monday

    Time Temperature Precipitation Wind Pressure Humidity
    00:00 +19°C° 0.2 mm 1 mps 647 mmHg 97%
    01:00 +19°C° 0.2 mm 1 mps 647 mmHg 96%
    02:00 +19°C° 0.2 mm 1 mps 646 mmHg 96%
    03:00 +19°C° 0.1 mm 1 mps 646 mmHg 96%
    04:00 +19°C° 0.1 mm 1 mps 646 mmHg 96%
    05:00 +18°C° 0.1 mm 1 mps 646 mmHg 96%
    06:00 +19°C° 0.1 mm 1 mps 647 mmHg 95%
    07:00 +19°C° 0.1 mm 1 mps 647 mmHg 93%
    08:00 +20°C° 0.1 mm 1 mps 648 mmHg 92%
    09:00 +21°C° 0.2 mm 1 mps 648 mmHg 89%
    10:00 +22°C° 0.2 mm 1 mps 649 mmHg 85%
    11:00 +23°C° 0.2 mm 1 mps 649 mmHg 82%
    12:00 +23°C° 0.8 mm 1 mps 648 mmHg 83%
    13:00 +23°C° 0.8 mm 1 mps 648 mmHg 85%
    14:00 +23°C° 0.8 mm 1 mps 647 mmHg 87%
    15:00 +22°C° 0.6 mm 1 mps 647 mmHg 89%
    16:00 +21°C° 0.6 mm 1 mps 647 mmHg 91%
    17:00 +21°C° 0.6 mm 1 mps 647 mmHg 93%
    18:00 +20°C° 0.2 mm 1 mps 647 mmHg 94%
    19:00 +20°C° 0.2 mm 1 mps 647 mmHg 95%
    20:00 +19°C° 0.2 mm 1 mps 648 mmHg 96%
    21:00 +19°C° 0 mm 1 mps 648 mmHg 96%
    22:00 +19°C° 0 mm 1 mps 648 mmHg 96%
    23:00 +18°C° 0 mm 1 mps 648 mmHg 96%

    23 October, Tuesday

    Time Temperature Precipitation Wind Pressure Humidity
    00:00 +18°C° 0 mm 1 mps 647 mmHg 96%
    01:00 +18°C° 0 mm 1 mps 647 mmHg 95%
    02:00 +18°C° 0 mm 1 mps 647 mmHg 95%
    03:00 +18°C° 0 mm 1 mps 647 mmHg 95%
    04:00 +18°C° 0 mm 1 mps 646 mmHg 95%
    05:00 +18°C° 0 mm 1 mps 646 mmHg 95%
    06:00 +18°C° 0 mm 1 mps 647 mmHg 94%
    07:00 +19°C° 0 mm 1 mps 648 mmHg 92%
    08:00 +20°C° 0 mm 1 mps 648 mmHg 90%
    09:00 +21°C° 0 mm 1 mps 649 mmHg 84%
    10:00 +23°C° 0 mm 1 mps 649 mmHg 77%
    11:00 +24°C° 0 mm 1 mps 650 mmHg 70%
    12:00 +25°C° 0.2 mm 2 mps 649 mmHg 70%
    13:00 +25°C° 0.2 mm 2 mps 648 mmHg 70%
    14:00 +25°C° 0.2 mm 2 mps 648 mmHg 70%
    15:00 +24°C° 0.3 mm 2 mps 647 mmHg 76%
    16:00 +23°C° 0.3 mm 1 mps 647 mmHg 81%
    17:00 +22°C° 0.3 mm 1 mps 647 mmHg 86%
    18:00 +21°C° 0.1 mm 1 mps 647 mmHg 89%
    19:00 +20°C° 0.1 mm 1 mps 647 mmHg 93%
    20:00 +19°C° 0.1 mm 1 mps 647 mmHg 96%
    21:00 +19°C° 0.3 mm 1 mps 647 mmHg 96%
    22:00 +19°C° 0.3 mm 1 mps 648 mmHg 97%
    23:00 +19°C° 0.3 mm 1 mps 648 mmHg 97%
    Show more